DW7500 Weather Reports


time (UTC)temp
F
wind
direction
speed
knots
gust
knots
rain 1hr
in
rain 24hr
in
rain mn
in
humidity
%
barometer
mb
20260507161541 45 263 7.0 12.2 0.00 0.00 0.00 70 1013.7
20260507160045 46 284 6.1 13.9 0.00 0.00 0.00 68 1013.8
20260507154533 46 254 3.5 13.0 0.00 0.00 0.00 70 1013.9
20260507153032 45 360 7.0 11.3 0.00 0.00 0.00 70 1013.8
20260507151528 44 360 4.3 12.2 0.00 0.00 0.00 71 1013.8
20260507150028 43 360 2.6 9.6 0.00 0.00 0.00 72 1013.8
20260507144532 43 360 5.2 10.4 0.00 0.00 0.00 75 1013.8
20260507143025 42 360 2.6 7.0 0.00 0.00 0.00 77 1013.9
20260507141524 42 360 4.3 8.7 0.00 0.00 0.00 75 1014.0
20260507140022 42 360 4.3 7.8 0.00 0.00 0.00 73 1013.9
20260507134521 42 360 2.6 7.8 0.00 0.00 0.00 73 1013.9
20260507133021 42 360 2.6 7.8 0.00 0.00 0.00 74 1013.9
20260507131518 42 360 2.6 7.0 0.00 0.00 0.00 79 1013.7
20260507130025 42 360 3.5 7.8 0.00 0.00 0.00 82 1013.5
20260507124522 40 360 1.7 4.3 0.00 0.00 0.00 89 1013.4
20260507123016 39 360 1.7 6.1 0.00 0.00 0.00 94 1013.3
20260507121514 38 360 3.5 7.0 0.00 0.00 0.00 96 1013.2
20260507120013 36 360 2.6 5.2 0.00 0.00 0.00 97 1013.1
20260507114510 33 150 1.7 2.6 0.00 0.00 0.00 95 1012.9
20260507113010 33 360 0.0 0.0 0.00 0.00 0.00 95 1012.8
20260507111503 32 360 0.0 0.9 0.00 0.00 0.00 94 1012.8
20260507110100 32 360 0.0 0.9 0.00 0.00 0.00 93 1012.6
20260507104559 32 360 0.0 1.7 0.00 0.00 0.00 93 1012.5
20260507103055 33 360 0.0 1.7 0.00 0.00 0.00 93 1012.4
20260507101558 33 360 0.0 0.9 0.00 0.00 0.00 92 1012.4
20260507100055 33 360 0.0 1.7 0.00 0.00 0.00 92 1012.4
20260507094550 34 360 0.9 1.7 0.00 0.00 0.00 91 1012.3
20260507093047 34 360 0.9 1.7 0.00 0.00 0.00 90 1012.5
20260507091545 35 360 0.0 0.0 0.00 0.00 0.00 89 1012.5
20260507090043 35 360 0.0 0.0 0.00 0.00 0.00 89 1012.5
20260507084540 36 360 0.0 0.0 0.00 0.00 0.00 89 1012.6
20260507083038 37 360 0.0 1.7 0.00 0.00 0.00 89 1012.6
20260507081535 37 360 0.0 0.9 0.00 0.00 0.00 88 1012.5
20260507080034 38 360 0.9 2.6 0.00 0.00 0.00 87 1012.7
20260507074530 39 360 0.0 1.7 0.00 0.00 0.00 86 1012.6
20260507073029 40 360 0.0 3.5 0.00 0.00 0.00 85 1012.7
20260507071525 40 360 0.9 1.7 0.00 0.00 0.00 84 1012.7
20260507070022 41 360 0.9 3.5 0.00 0.00 0.00 84 1012.8
20260507064523 41 360 0.0 3.5 0.00 0.00 0.00 83 1013.0
20260507063031 41 360 1.7 7.8 0.00 0.00 0.00 81 1013.1
20260507061515 42 360 4.3 10.4 0.00 0.00 0.00 78 1013.2
20260507060032 42 360 3.5 13.9 0.00 0.00 0.00 77 1013.2
20260507054511 43 360 2.6 8.7 0.00 0.00 0.00 75 1013.3
20260507053008 43 360 4.3 11.3 0.00 0.00 0.00 74 1013.2
20260507051508 43 360 3.5 8.7 0.00 0.00 0.00 73 1013.2
20260507050006 43 360 3.5 8.7 0.00 0.00 0.00 73 1013.3
20260507044503 43 360 4.3 9.6 0.00 0.00 0.00 73 1013.2
20260507043002 44 360 2.6 7.8 0.00 0.00 0.00 74 1013.2
20260507041559 44 360 3.5 9.6 0.00 0.00 0.00 74 1013.3
20260507040105 43 360 0.0 7.0 0.00 0.00 0.00 77 1013.0
20260507034555 44 360 1.7 7.0 0.00 0.00 0.00 77 1013.1
20260507033101 45 360 3.5 8.7 0.00 0.00 0.00 75 1013.1
20260507031601 45 360 3.5 8.7 0.00 0.00 0.00 72 1013.1
20260507030054 45 360 5.2 9.6 0.00 0.00 0.00 70 1012.9
20260507024554 45 360 4.3 7.8 0.00 0.00 0.00 66 1013.1
20260507023052 45 360 1.7 5.2 0.00 0.00 0.00 61 1012.9
20260507021551 46 360 3.5 7.0 0.00 0.00 0.00 60 1012.8
20260507020052 46 360 2.6 6.1 0.00 0.00 0.00 58 1012.8
20260507014554 46 360 1.7 5.2 0.00 0.00 0.00 57 1012.8
20260507013151 46 360 3.5 9.6 0.00 0.00 0.00 57 1012.7
20260507011549 46 360 3.5 9.6 0.00 0.00 0.00 56 1012.7
20260507010058 46 360 5.2 8.7 0.00 0.00 0.00 54 1012.7
20260507004549 46 360 4.3 7.0 0.00 0.00 0.00 57 1012.6
20260507003046 46 360 2.6 5.2 0.00 0.00 0.00 66 1012.5
20260507001550 46 360 3.5 6.1 0.00 0.00 0.00 67 1012.4
20260507000046 46 360 3.5 6.1 0.00 0.00 0.00 67 1012.3
20260506234548 46 360 4.3 10.4 0.00 0.00 0.00 66 1012.3
20260506233059 46 360 5.2 8.7 0.00 0.00 0.00 65 1012.4
20260506231544 47 360 4.3 7.0 0.00 0.00 0.00 64 1012.4
20260506230043 47 360 3.5 7.0 0.00 0.00 0.00 61 1012.3
20260506224543 48 360 4.3 10.4 0.00 0.00 0.00 59 1012.4
20260506223042 49 256 4.3 7.8 0.00 0.00 0.00 59 1012.6
20260506221548 49 263 3.5 8.7 0.00 0.00 0.00 60 1012.6
20260506220042 49 247 4.3 7.0 0.00 0.00 0.00 60 1012.4
20260506214541 49 263 4.3 9.6 0.00 0.00 0.00 59 1012.4
20260506213040 49 248 7.0 12.2 0.00 0.00 0.00 61 1012.4
20260506211541 49 249 7.0 11.3 0.00 0.00 0.00 60 1012.5
20260506210039 49 288 5.2 12.2 0.00 0.00 0.00 62 1012.5
20260506204540 48 216 7.0 13.0 0.00 0.00 0.00 61 1012.7
20260506203038 49 244 5.2 11.3 0.00 0.00 0.00 60 1012.7
20260506201540 49 224 5.2 9.6 0.00 0.00 0.00 61 1012.7
20260506200043 49 261 4.3 10.4 0.00 0.00 0.00 61 1012.8
20260506194544 49 224 4.3 9.6 0.00 0.00 0.00 59 1012.8
20260506193036 50 311 4.3 8.7 0.00 0.00 0.00 59 1012.7
20260506191536 49 254 5.2 9.6 0.00 0.00 0.00 59 1012.7
20260506190036 49 312 4.3 9.6 0.00 0.00 0.00 64 1012.6
20260506184535 49 360 3.5 7.8 0.00 0.00 0.00 66 1012.5
20260506183036 50 226 3.5 7.8 0.00 0.00 0.00 68 1012.6
20260506181534 49 283 4.3 8.7 0.00 0.00 0.00 66 1012.6
20260506180034 48 313 6.1 10.4 0.00 0.00 0.00 68 1012.7
20260506174532 48 304 4.3 8.7 0.00 0.00 0.00 68 1012.8
20260506173038 47 304 5.2 10.4 0.00 0.00 0.00 68 1013.1
20260506171530 47 299 6.1 11.3 0.00 0.00 0.00 70 1013.1
20260506170030 47 270 6.1 10.4 0.00 0.00 0.00 70 1013.2
20260506164530 47 360 5.2 10.4 0.00 0.00 0.00 70 1013.2
20260506163029 48 360 5.2 10.4 0.00 0.00 0.00 69 1013.1